Location: Byszew
(52.1813°N, 19.2693°E)
Time: 23:36:31
(UTC+00:00)

Cosmos 2322 Rocket - Pass Details

Date: 25 June 2021
Orbit: 833 x 850 km, 71.0° (Epoch: 26 July)

Event Time Altitude Azimuth Distance (km) Brightness Sun altitude
Rises 23:04:56 0° 314° (NW) 3,426 6.0 -14.3°
Reaches altitude 10° 23:09:26 10° 347° (NNW) 2,487 5.8 -14.3°
Maximum altitude 23:11:19 12° 6° (N) 2,375 5.9 -14.3°
Drops below altitude 10° 23:13:13 10° 26° (NNE) 2,483 5.8 -14.2°
Sets 23:17:41 0° 59° (ENE) 3,413 6.0 -14.1°
